Regional Weather Roundup
Issued by NWS Pendleton, OR

Home | Current Version | Previous Version | Text Only | Print | Product List | Glossary On
Versions: 1 2 3 4 5 6 7 8 9 10 11 12 13 14 15 16 17 18 19 20 21 22 23 24 25 26 27 28 29 30 31 32 33 34 35 36 37 38 39 40 41 42 43 44 45 46 47 48 49 50
000
ASUS46 KPDT 161225
RWRPDT
PENDLETON REGIONAL WEATHER ROUNDUP
NATIONAL WEATHER SERVICE PENDLETON OREGON
500 AM PDT TUE SEP 16 2014

NOTE: FAIR INDICATES FEW OR NO CLOUDS BELOW 12,000 FEET WITH NO
SIGNIFICANT WEATHER AND/OR OBSTRUCTIONS TO VISIBILITY.

# INDICATES UNOFFICIAL STATION AND DATA

WAZ520-161310-
EAST SLOPES OF WASHINGTON CASCADES

CITY            SKY/WX      TMP DP  RH  WIND    PRES   REMARKS
#BUMPING DAM    N/A         48  N/A N/A N3      N/A
#CLE ELUM HS    N/A         48  39  71  CALM    29.89S
#CLE ELUM 2NW   N/A         48  39  71  CALM    N/A
#CLE ELUM LAKE  N/A         56  37  49  CALM    29.81R
#CLIFFDEL 2NW   N/A         47  39  74  CALM    N/A
#GLENWOOD       N/A         41  38  89  CALM    29.85R
#MANASTASH CYN  N/A         57  31  37  CALM    29.90F
#NELSON         N/A         45  41  86  CALM    29.90S
#NELSON 3SW     N/A         55  38  53  CALM    30.05R
#NILE           N/A         54  40  59  W6      29.16F
#RONALD 2NW     N/A         56  38  51  NE2     29.82S
#TEANAWAY 4NE   N/A         47  38  71  CALM    N/A
#TROUT LAKE 1NE N/A         46  40  79  CALM    29.83R
$$

WAZ521-161310-
SIMCOE HIGHLANDS

CITY            SKY/WX      TMP DP  RH  WIND    PRES   REMARKS
#BICKLETON HS   N/A         65  26  23  N5      29.97S
#CENTERVILLE 4W N/A         59  34  39  N3      29.63S
#CENTERVILLE 1SWN/A         42  26  53  CALM    29.80R
#GOLDENDALE     N/A         50  32  50  E2      N/A
#GOLDENDALE 1NE N/A         49  27  42  N5      N/A
#GOLDENDALE 1S  N/A         50  33  52  CALM    29.85S
#GOLDENDALE 5WNWN/A         52  34  50  CALM    29.81R
#GOODNOE HILLS  N/A         61  32  33  NW5     29.80R
#LYLE 6NE       N/A         58  33  39  CALM    29.78R
$$

WAZ026-161310-
KITTITAS VALLEY

CITY            SKY/WX      TMP DP  RH  WIND    PRES   REMARKS
ELLENSBURG AP   MOCLDY      54  40  59  SW6     29.89F
6HR MIN TEMP:   49; 6HR MAX TEMP:   60; 6HR PCP:  TRACE;

#ELLENSBURG CWU N/A         53  41  64  SE1     29.80F
#ELLENSBURG 3NE N/A         52  41  66  W2      29.90S
#ELLENSBURG     N/A         54  48  80  CALM    N/A
#ELLENSBURG 1E  N/A         51  39  63  CALM    N/A
#KITTITAS 3S    N/A         45  42  89  CALM    29.85F
#THORP 6N       N/A         57  35  43  N6      29.84F
$$

WAZ027-161310-
YAKIMA VALLEY

CITY            SKY/WX      TMP DP  RH  WIND    PRES   REMARKS
SUNNYSIDE AP    PTCLDY      46  45  96  CALM    29.83F
YAKIMA AIRPORT  PTCLDY      55  43  64  W8      29.86S
6HR MIN TEMP:   52; 6HR MAX TEMP:   62;

YAKIMA-VAGABOND MOCLDY      62  32  32  E7      29.87S
#COWICHE 1N     N/A         63  39  41  N1      30.04S
#DONALD 2NE     N/A         63  31  30  SW1     30.16S
#GRANDVIEW      N/A         52  45  77  CALM    29.83S
#MABTON         N/A         51  40  66  CALM    29.83S
#MOXEE 2E       N/A         51  34  52  CALM    29.82S
#NACHES 2SW     N/A         63  41  44  NW5     29.88S
#OUTLOOK DOT    N/A         N/A N/A N/A E5      N/A
#SELAH 8E       N/A         59  30  33  CALM    N/A
#TERRACE HTS    N/A         57  41  55  CALM    29.78F
#TOPPENISH      N/A         53  46  77  CALM    29.73F
#WAPATO 4NE     N/A         63  31  30  SW1     30.16S
#WEST VALLEY    N/A         58  43  57  CALM    29.80S
#W YAKIMA       N/A         62  40  44  W3      29.81S
#WHITE SWAN 5E  N/A         49  43  80  CALM    29.82S
#WILEY CITY 3W  N/A         55  40  57  CALM    29.86F
$$

WAZ028-161310-
LOWER COLUMBIA BASIN...WASHINGTON

CITY            SKY/WX      TMP DP  RH  WIND    PRES   REMARKS
HANFORD         MOCLDY      58  33  39  N2      29.82R
PASCO           PTCLDY      50  48  93  CALM    29.83S
6HR MIN TEMP:   48; 6HR MAX TEMP:   60;

PROSSER AWOS    N/A         50  45  83  SW1     29.86S
RICHLAND AWOS   PTCLDY      54  46  74  CALM    29.83S
#BASIN CITY 5SW N/A         54  45  71  E2      29.83S
#BENTON CITY    N/A         55  45  69  CALM    29.72F
#CONNELL 5N     N/A         54  32  43  N2      29.81S
#CONNELL 5NW    N/A         50  39  66  CALM    29.78S
#ELTOPIA        N/A         52  40  63  CALM    29.78S
#ELTOPIA 6NW    N/A         55  44  66  N3      28.80F
#KENNEWICK 3S   N/A         61  37  41  CALM    29.80S
#PASCO-BROADMOORN/A         55  48  77  NW1     29.71F
#PATERSON       N/A         55  43  64  CALM    29.80S
#PROSSER        N/A         61  35  38  SW1     29.80F
#SAGEMOOR 2W    N/A         56  46  69  W2      29.67S
#TOUCHET 2S     N/A         45  41  86  CALM    29.80S
#WEST PASCO     N/A         55  45  69  CALM    29.80F
$$

WAZ029-161310-
FOOTHILLS OF THE BLUES...WASHINGTON

CITY            SKY/WX      TMP DP  RH  WIND    PRES   REMARKS
WALLA WALLA AP  PTCLDY      61  38  42  E7      29.84F
6HR MIN TEMP:   60; 6HR MAX TEMP:   69;

#DAYTON SCHOOL  N/A         56  34  43  NE1     29.86S
#LOWDEN 2SE     N/A         48  42  80  CALM    29.79S
#PLEASANT VIEW 1N/A         62  38  41  CALM    29.83S
#PRESCOTT       N/A         50  40  68  CALM    29.80S
#SUDBURY        N/A         52  N/A N/A CALM    N/A
#WHITMAN COLLEGEN/A         64  39  40  CALM    29.84S
#WAITSBURG 8N   N/A         53  22  29  CALM    29.79S
#WALLA WALLA 5E N/A         60  35  39  W7      N/A
#WALLA WALLA U  N/A         57  44  62  CALM    29.80S
#WHITMAN MISSIONN/A         50  45  83  CALM    29.83R
$$

WAZ030-161310-
BLUE MOUNTAINS...WASHINGTON

CITY            SKY/WX      TMP DP  RH  WIND    PRES   REMARKS
$$

ORZ009-041-WAZ024-161310-
COLUMBIA RIVER GORGE

CITY            SKY/WX      TMP DP  RH  WIND    PRES   REMARKS
HOOD RIVER AP   MOCLDY      52  43  71  SW3     29.87R
THE DALLES AP   PTCLDY      53  40  61  CALM    29.84S
6HR MIN TEMP:   52; 6HR MAX TEMP:   64;

#ARLINGTON AIRPON/A         60  37  42  W3      N/A
#ARLINGTON HS   N/A         57  33  40  CALM    29.73R
#MARYHILL 2W    N/A         60  41  49  CALM    N/A
#MOSIER 1S      N/A         59  35  40  NW2     29.88R
#MURDOCK        N/A         62  43  50  NW6     29.85R
#RUFUS DOT      N/A         58  38  47  S6      N/A

$$

ORZ510-161310-
NORTH CENTRAL OREGON

CITY            SKY/WX      TMP DP  RH  WIND    PRES   REMARKS
#CHENOWITH 1W   N/A         58  39  49  W14     N/A
#COW CYN RST AREN/A         60  30  32  SW3     N/A
#DUFUR 9E       N/A         69  32  25  CALM    29.83S
#GRASS VALLEY   N/A         49  30  48  S1      N/A
#GRASS VALLEY 1SN/A         55  32  41  CALM    29.84R
#KENT DOT       N/A         54  26  34  S3      N/A
#MAUPIN SCHOOL  N/A         55  32  41  CALM    28.76S
#MORO SCHOOL    N/A         52  37  56  S1      29.89S
#SHANIKO 5WSW   N/A         58  27  30  S7      N/A
#SHANIKO 4NW    N/A         60  27  28  SW1     29.93F
#TYGH VALLEY 2NEN/A         52  34  50  CALM    29.83S
#WAPANITIA AIRPON/A         55  37  51  CALM    29.83F
#WASCO DOT      N/A         47  34  60  SE1     N/A
#WASCO AIRPORT  N/A         60  29  31  CALM    N/A
#WASCO 5NE      N/A         55  32  41  CALM    29.82S
$$

ORZ511-161310-
CENTRAL OREGON

CITY            SKY/WX      TMP DP  RH  WIND    PRES   REMARKS
BEND AIRPORT    MOCLDY      50  32  50  S6      29.97S
MADRAS AIRPORT  CLOUDY      52  34  50  S5      29.93S
REDMOND AIRPORT MOCLDY      45  27  49  CALM    29.94S
6HR MIN TEMP:   45; 6HR MAX TEMP:   65;

#BEND 6E        N/A         51  33  50  CALM    29.75R
#BEND 1SW       N/A         48  33  56  SW1     N/A
#BEND-AWBREY    N/A         61  35  38  N3      29.79F
#BEND-KIM LN    N/A         56  37  49  S5      29.93S
#CROOKED RVR RANN/A         52  34  50  SW24    29.82F
#CULVER         N/A         52  37  56  N1      29.88F
#LAKE BILLY CHINN/A         54   9  16  CALM    29.98R
#POWELL BUTTE 3EN/A         53  33  46  E2      N/A
#POWELL BUTTE   N/A         56  31  38  S2      29.59F
#PRINEVILLE 3N  N/A         47  37  68  CALM    29.80S
#WARM SPRINGS   N/A         52  35  52  CALM    29.87S


ORZ509-161310-
EAST SLOPES OF OREGON CASCADES

CITY            SKY/WX      TMP DP  RH  WIND    PRES   REMARKS
#BLUE BOX PASS  N/A         57   4  11  SW3     N/A
#BLACK BUTTE RNCN/A         46  36  68  CALM    29.85S
#CAMP SHERMAN   N/A         40  31  70  CALM    29.85R
#LA PINE DOT    N/A         38  29  70  E1      N/A
#LA PINE 4NW    N/A         38  27  64  CALM    29.88S
#LAVA BUTTE DOT N/A         46  32  58  W7      N/A
#SISTERS AIRPOR N/A         42  34  73  CALM    29.93F
#SISTERS ODOT   N/A         43  N/A N/A CALM    N/A
#SISTERS 1NW    N/A         44  32  62  N5      N/A
#SISTERS 3N     N/A         41  32  70  CALM    N/A
#SUNRIVER       N/A         42  36  79  CALM    29.75S
#SUNRIVER AP    N/A         40  33  76  CALM    29.82S
#SUTTLE LK DOT  N/A         44  36  73  SE13    N/A    WCI 38
#TUMALO 3W      N/A         64  34  33  S1      29.67F
#WANOGA BUTTE D N/A         54  30  40  W3      N/A

$$

ORZ044-161310-
LOWER COLUMBIA BASIN...OREGON

CITY            SKY/WX      TMP DP  RH  WIND    PRES   REMARKS
HERMISTON       MOCLDY      50  37  61  S6      29.83S
6HR MIN TEMP:   49; 6HR MAX TEMP:   61;

#BOARDMAN SCHOOLN/A         70  46  42  CALM    29.83R
#BOARDMAN 3W    N/A         48  41  77  S1      29.56R
#BOARDMAN 8SW   N/A         55  38  53  SW3     29.82R
#ECHO 8SW       N/A         52  38  59  CALM    29.80F
#IONE SCHOOL    N/A         53  35  50  CALM    29.85R
#IRRIGON 4NW    N/A         50  47  89  N1      N/A
#UMATILLA SCHOOLN/A         49  47  93  S3      29.85F
#UMATILLA       N/A         55  38  53  CALM    29.80S
$$

ORZ507-161310-
NORTHERN FOOTHILLS OF THE BLUES

CITY            SKY/WX      TMP DP  RH  WIND    PRES   REMARKS
PENDLETON AIRPT MOCLDY      57  35  43  E8      29.85S
6HR MIN TEMP:   55; 6HR MAX TEMP:   61;

#ADAMS 3WNW     N/A         49  32  52  CALM    29.82S
#ATHENA         N/A         50  37  61  CALM    29.84S
#HELIX SCHOOL   N/A         51  33  50  N3      29.81S
#HELIX 3N       N/A         63  35  35  N1      29.84S
#HELIX 6SW      N/A         55  36  49  CALM    29.85S
#HOLDMAN 5SE    N/A         58  37  45  CALM    29.85S
#HOLDMAN 6E     N/A         60  36  41  W1      29.62S
#M-FREEWATER 5SEN/A         58  41  53  CALM    29.85S
#PENDLETON DNTN N/A         52  30  43  CALM    29.88R
#PDT AQUATIC CTRN/A         53  31  43  CALM    29.85S
#PDT SUNRIDGE   N/A         49  37  63  CALM    29.86S
#PENDLETON 7NW  N/A         55  37  51  CALM    27.21F
#PILOT ROCK     N/A         58  34  40  CALM    29.88F
#TUTUILLA       N/A         48  40  74  CALM    29.83F
#UMAPINE 2E     N/A         49  44  83  CALM    29.80R
#WESTON SCHOOL  N/A         60  32  35  W1      29.83S

$$

ORZ508-161310-
SOUTHERN FOOTHILLS OF THE BLUES

CITY            SKY/WX      TMP DP  RH  WIND    PRES   REMARKS
#AJAX           N/A         62  27  26  CALM    29.83F
#CONDON SCHOOL  N/A         59  34  39  CALM    29.88S
#CONDON 5W      N/A         63  29  28  E1      29.89S
#FOSSIL SCHOOL  N/A         49  33  54  CALM    29.90S
#HEPPNER EOC    N/A         58  36  44  E2      29.76S
#HEPPNER 4NE    N/A         69  35  28  NE3     29.78F
#LEXINGTON 2SE  N/A         58  37  45  CALM    29.84R
#MIKKALO        N/A         57  28  33  SE5     29.86S
#OLEX 4N        N/A         56  34  43  S5      29.84S
#RUGGS 5NE      N/A         62  34  35  CALM    30.07F
#RUGGS 2SW      N/A         65  37  35  W3      29.85S

$$

ORZ502-503-161310-
BLUE MOUNTAINS

CITY            SKY/WX      TMP DP  RH  WIND    PRES   REMARKS
MEACHAM         MOCLDY      43  35  73  CALM    29.97S
6HR MIN TEMP:   43; 6HR MAX TEMP:   49;

#BATTLE MTN DOT N/A         61  42  50  S7      N/A
#HARDMAN 10S    N/A         61  33  35  CALM    30.03F
#HEPPNER 15SE   N/A         66  39  37  E1      29.88S
#LADD CYN SMT   N/A         59  33  37  E7      N/A
#LADD CREEK ODOTN/A         57  41  55  SW5     N/A
#N POWDER DOT   N/A         49  46  89  NW2     N/A
#PIKES PEAK     N/A         70  34  26  S7      27.99S
#TOLLGATE       N/A         66  39  37  CALM    29.97S
#TOLLGATE 9W    N/A         68  31  25  SE6     N/A
#TROY SCHOOL    N/A         51  41  68  CALM    29.72S
#UKIAH          N/A         42  34  73  CALM    29.93S
#WESTON 4E      N/A         68  35  29  E5      29.72S
$$

ORZ505-161310-
JOHN DAY BASIN

CITY            SKY/WX      TMP DP  RH  WIND    PRES   REMARKS
JOHN DAY        MOCLDY      62  44  52  E12     30.00R
#JOHN DAY KJDY  N/A         57  50  77  CALM    30.11F
#MONUMENT HS    N/A         52  37  56  CALM    29.92S
#MT. VERNON 5SE N/A         69  44  40  E3      29.96S
#WINLOCK        N/A         61  35  38  CALM    30.01S
$$

ORZ506-161310-
OCHOCO AND JOHN DAY HIGHLANDS

CITY            SKY/WX      TMP DP  RH  WIND    PRES   REMARKS
#BUCK CREEK DOT N/A         65  35  33  S3      N/A
#HORSE RIDGE DO N/A         38  25  59  W1      N/A
#KEYES SMT DOT  N/A         63  34  34  CALM    N/A
#PAULINA SCHOOL N/A         43  35  73  CALM    29.98S
#PINE MTN OBS   N/A         57  28  33  SE21G36 N/A
#PRAIRIE CITY   N/A         48  42  80  CALM    30.02R
#SENECA 9NW     N/A         45  40  82  CALM    29.86S
$$

ORZ049-161310-
GRANDE RONDE VALLEY

CITY            SKY/WX      TMP DP  RH  WIND    PRES   REMARKS
LA GRANDE       PTCLDY      52  30  43  CALM    29.94S
#COVE           N/A         53  43  69  CALM    29.87R
#COVE SCHOOL    N/A         53  41  64  CALM    29.93S
#COVE 6NW       N/A         47  39  74  CALM    29.91R
#ELGIN 3N       N/A         48  34  58  CALM    29.68S
#ELGIN 1E       N/A         48  34  58  CALM    N/A
#IMBLER SCHOOL  N/A         52  37  56  NE2     29.91R
#LADD CYN DOT   N/A         59  38  45  SE3     N/A
#LA GRANDE ELEM N/A         56  39  53  CALM    29.93S
#UNION 1S       N/A         52  41  66  CALM    29.77R
$$

ORZ050-161310-
WALLOWA COUNTY

CITY            SKY/WX      TMP DP  RH  WIND    PRES   REMARKS
JOSEPH AIRPORT  PTCLDY      55  34  45  CALM    30.00S
#ENTERPRISE AP  N/A         54  30  40  CALM    29.93S
#ENTERPRISE HS  N/A         49  39  68  CALM    30.00R
#IMNAHA SCHOOL  N/A         56  35  45  CALM    29.88R
#IMNAHA 10S     N/A         61  35  38  SW5     29.93S
#JOSEPH 3N      N/A         48  37  65  CALM    30.01S
#JOSEPH 3W      N/A         66  42  42  SW2     29.87S
#LOSTINE        N/A         48  39  71  CALM    29.67S
#MT HOWARD 8000 N/A         57  37  47  SE9     30.27S
#PROMISE 1S     N/A         56  35  45  CALM    29.89F
#SHEEP RDG 7000 N/A         63  38  39  CALM    29.75R
#WALLOWA SCHOOL N/A         45  39  79  CALM    30.79R



$$



USA.gov is the U.S. government's official web portal to all federal, state and local government web resources and services.